WIA543 TNCE-TNCM

Flight info

Callsign WIA543
Flight time N/A
Altitude 2000
Route DCT
Aircraft DHC6/L-SDFGR/C

Departure

Time 2026-05-04 19:20
Airport F. D. Roosevelt Airport (TNCE)

Arrival

Time N/A
Airport Princess Juliana International Airport (TNCM)
Time Latitude Longitude Altitude Speed Heading
2026-05-04 19:07 17.49377 -62.98130 125 ft 0 kts 315°
2026-05-04 19:18 17.49378 -62.98132 125 ft 2 kts 287°
2026-05-04 19:18 17.49351 -62.98162 126 ft 11 kts 272°
2026-05-04 19:19 17.49390 -62.98232 124 ft 13 kts 323°
2026-05-04 19:19 17.49358 -62.98314 127 ft 16 kts 227°
2026-05-04 19:19 17.49305 -62.98411 132 ft 10 kts 239°
2026-05-04 19:19 17.49288 -62.98402 132 ft 0 kts 47°
2026-05-04 19:20 17.49380 -62.98287 128 ft 61 kts 50°
2026-05-04 19:20 17.49791 -62.97797 329 ft 102 kts 56°
2026-05-04 19:20 17.50251 -62.97235 781 ft 106 kts 48°
2026-05-04 19:20 17.51037 -62.97003 1114 ft 132 kts 354°
2026-05-04 19:21 17.51836 -62.97504 1505 ft 136 kts 325°
2026-05-04 19:21 17.52434 -62.98238 1818 ft 144 kts 278°
2026-05-04 19:21 17.51937 -62.99082 1830 ft 139 kts 193°
2026-05-04 19:21 17.51059 -62.98967 1596 ft 127 kts 146°
2026-05-04 19:22 17.50298 -62.98672 1303 ft 117 kts 174°
2026-05-04 19:22 17.49673 -62.99167 900 ft 111 kts 224°
2026-05-04 19:22 17.49161 -62.99479 617 ft 77 kts 160°
2026-05-04 19:22 17.48877 -62.99087 375 ft 79 kts 85°
2026-05-04 19:23 17.49120 -62.98628 219 ft 66 kts 60°
2026-05-04 19:23 17.49363 -62.98312 130 ft 31 kts 49°
2026-05-04 19:23 17.49395 -62.98253 128 ft 14 kts 86°